TimeMST,TemperatureF,Dew PointF,Humidity,Sea Level PressureIn,VisibilityMPH,Wind Direction,Wind SpeedMPH,Gust SpeedMPH,PrecipitationIn,Events,Conditions,WindDirDegrees,DateUTC
12:53 AM,8.1,1.9,76,30.08,10.0,WSW,10.4,-,N/A,,Clear,250,2014-02-27 07:53:00
1:53 AM,9.0,1.9,73,30.07,10.0,Calm,Calm,-,N/A,,Clear,0,2014-02-27 08:53:00
2:53 AM,6.1,-0.9,73,30.04,10.0,Calm,Calm,-,N/A,,Clear,0,2014-02-27 09:53:00
3:53 AM,3.9,-0.9,80,30.02,10.0,WSW,3.5,-,N/A,,Clear,240,2014-02-27 10:53:00
4:53 AM,5.0,-0.0,80,30.02,10.0,Calm,Calm,-,N/A,,Clear,0,2014-02-27 11:53:00
5:53 AM,1.0,-4.0,79,30.02,10.0,WSW,3.5,-,N/A,,Clear,240,2014-02-27 12:53:00
6:53 AM,5.0,-0.0,80,29.98,10.0,SSW,4.6,-,N/A,,Clear,200,2014-02-27 13:53:00
7:53 AM,8.1,1.9,76,29.96,10.0,Calm,Calm,-,N/A,,Clear,0,2014-02-27 14:53:00
8:53 AM,15.1,5.0,64,29.93,10.0,Calm,Calm,-,N/A,,Clear,0,2014-02-27 15:53:00
9:53 AM,19.0,8.1,62,29.91,10.0,NE,4.6,-,N/A,,Clear,50,2014-02-27 16:53:00
10:53 AM,23.0,10.9,60,29.85,10.0,Calm,Calm,-,N/A,,Clear,0,2014-02-27 17:53:00
11:53 AM,30.9,18.0,59,29.80,10.0,South,12.7,-,N/A,,Partly Cloudy,190,2014-02-27 18:53:00
12:53 PM,33.1,21.0,61,29.75,10.0,South,8.1,-,N/A,,Clear,190,2014-02-27 19:53:00
1:53 PM,37.0,21.9,54,29.72,10.0,South,5.8,-,N/A,,Clear,170,2014-02-27 20:53:00
2:53 PM,37.9,25.0,60,29.70,10.0,South,11.5,-,N/A,,Clear,180,2014-02-27 21:53:00
3:53 PM,37.9,27.0,65,29.70,10.0,South,9.2,-,N/A,,Clear,170,2014-02-27 22:53:00
4:53 PM,35.1,27.0,72,29.69,10.0,South,8.1,-,N/A,,Clear,180,2014-02-27 23:53:00
5:53 PM,33.1,26.1,75,29.70,10.0,South,9.2,-,N/A,,Clear,170,2014-02-28 00:53:00
6:53 PM,32.0,25.0,75,29.69,10.0,South,12.7,-,N/A,,Clear,180,2014-02-28 01:53:00
7:53 PM,28.9,24.1,82,29.68,9.0,South,5.8,-,N/A,,Clear,170,2014-02-28 02:53:00
8:53 PM,28.0,23.0,81,29.67,9.0,WSW,3.5,-,N/A,,Clear,240,2014-02-28 03:53:00
9:53 PM,28.0,23.0,81,29.65,9.0,Calm,Calm,-,N/A,,Clear,0,2014-02-28 04:53:00
10:53 PM,25.0,21.9,88,29.64,7.0,SSE,4.6,-,N/A,,Clear,150,2014-02-28 05:53:00
11:53 PM,23.0,21.0,92,29.62,7.0,Calm,Calm,-,N/A,,Clear,0,2014-02-28 06:53:00